DELTA 1 DEB, 10663

Orbit data source: Space-Track

DELTA 1 DEB, 10663 is space debris in SSO originally from a launch on Thu, 29 Jul 1976 UTC launched from the Air Force Western Test Range (AFWTR). Debris objects in space refer to the collection of defunct objects orbiting the Earth. Examples of debris include non-operational satellites, rocket bodies, and fragments generated from explosions, collisions, or faulty payload assembly.

Loading next visibility...
Identifier
10663, 1976-077Z
Orbit
SSO
Country
Flag of USUS
Related business
Manufacturer
Unknown
Mission
Spacecraft
Bus & Motor
Unknown
Mass
Unknown
Launch date (UTC)
1976-07-29 (50 years ago)
Launch vehicle
Unknown
Launch site
Air Force Western Test Range (AFWTR)
Object type
Payload
Rocket body
Debris
Shape & HBR
Unknown shape, 0.1 m
Radar Cross Section
Medium (>0.1 m² and <1 m²)

Expand to show TLE details & history
Last TLE update: 3 days ago

TLE from 3 days ago
0 DELTA 1 DEB
1 10663U 76077Z   26171.05519682  .00007457  00000-0  43044-2 0  9996
2 10663 100.6103 195.3908 0107797 181.5704 178.5135 14.06504588431358
Epoch: 2026-06-20T01:19Z
TLE epoch observation values (Epoch: 2026-06-20T01:19:29.005Z)
Latitude
0.00002°
Longitude
-92.75537°
Altitude
952.324 km
Speed
7.336 km/s
True Right ascension
13h 01m 33s
True Declination
0° 00' 00"
Sunlit
Object was in daylight at epoch
Visualization orbit readout
Latitude
Unknown
Longitude
Unknown
Altitude
Unknown
Speed
Unknown
Apparent Right ascension
Unknown
Apparent Declination
Unknown
Sunlit
N/A
Visualization observer readout
Local Sidereal Time
05:24:05
Azimuth
Unknown
Elevation
Unknown
Doppler factor
Unknown
Orbital elements
Apogee altitude
946.752 km
Perigee altitude
790.516 km
Semi-major axis
7,246.771 km
Eccentricity
0.01078
Inclination
100.6103°
RAAN
195.3908°
Arg. of periapsis
181.5704°
True anomaly
178.54512°
Mean anomaly
178.5135°
Eccentric anomaly
178.52935°
Mean motion
3.51825 °/min
Orbital period
102.32 mins
BSTAR
0.0043044
Loading maneuver chart data...
Computing Atmospheric mass density...
Loading historical data...
Loading historical data...
Loading historical data...
Loading historical data...
Loading historical data...
Loading historical data...
Loading historical data...

Documentation

Showing up to 5 results
|